sat.trackr.live / text

‹ back to catalog

STARLINK-34525

NORAD 64678 · 2025-139Q

PAYLOAD ACTIVE UNKNOWN

§ Identity

Operator
Country
US
Launch date
2025-06-28
Launch site
AFETR
Launch vehicle
Mass (kg)
RCS (m²)

Purposes: comms

External: N2YO · Heavens-Above · Gunter

§ Orbital elements

Epoch: 2026-05-25T03:13:39.333792Z

Period
94.10 min
Inclination
53.1568°
Eccentricity
0.0001170
Mean motion
15.30211157 rev/d
Perigee alt
474.4 km
Apogee alt
476.0 km
Semi-major
6,853.3 km
B*
5.5834e-4
RAAN
132.2743°
Arg perigee
85.0254°
Mean anomaly
275.0880°
Rev number
5,198

§ Raw data

STARLINK-345251 64678U 25139Q   26145.13448303  .00016219  00000+0  55834-3 0  99912 64678  53.1568 132.2743 0001170  85.0254 275.0880 15.30211157 51985

JSON: /api/v1/satellites/64678 · /tle

For live sub-satellite position, see the globe view (requires WebGL).

§ Visibility from observer

Set your observer location to see the next 7 days of passes ≥ 10°. The values pass through the URL so the page stays shareable.

No JS? Fill the form by hand. The geolocation button needs JavaScript.